Weather in Zalipye

Russia / Krasnoyarsk Krai     56˚40′21″N   96˚22′05″E
temp.,
°C
wind,
m/s
gust,
m/s
humid.,
%
clouds,
%
prec.,
mm/h
press.,
hPa
HPBL,
m
17 january, sun
sun1701:00−16˚sse3696100 1.2 1026258
04:00−14˚sse3696100 0.6 1023248
07:00−13˚ssw1497100 1.3 1021145
10:00−16˚ene0196100 0.1 102025
13:00−13˚ese2494100 0.1 1018215
16:00−12˚e3794100 0.0 1016286
19:00−12˚ese41093100 0.2 1013283
22:00−13˚se2596100 0.0 1011149
18 january, mon
mon1801:00−8˚wsw61294100 0.6 1011947
04:00−9˚wsw51290100 0.2 10131013
07:00−11˚wsw41290100 0.3 1013588
10:00−12˚sw31089100 0.0 1012358
13:00−8˚ssw41183100 0.0 1008504
16:00−6˚ssw51481100 0.0 1004529
19:00−6˚wsw41285100 0.0 1003565
22:00−9˚w5138834 0.0 1003831
19 january, tue
tue1901:00−11˚wsw5138736 0.0 1006868
04:00−12˚w6138799 0.0 10091167
07:00−14˚wsw6138598 0.1 1012832
10:00−16˚wsw6138599 0.0 1015884
13:00−17˚w6108599 0.0 10171015
16:00−19˚wsw41189100 0.0 1018783
19:00−19˚wsw4128997 0.0 1018710
22:00−19˚wsw31094100 0.0 1018622
20 january, wed
wed2001:00−20˚wsw2499100 0.1 1019147
04:00−21˚w2898100 0.1 1019509
07:00−22˚w3998100 0.1 1020515
10:00−24˚nw4993100 0.1 1023738
13:00−24˚wnw4889100 0.1 1026672
16:00−27˚w259493 0.0 1029125
19:00−31˚w229549 0.0 103219
22:00−32˚sw12960 0.0 103319
21 january, thu
thu2101:00−33˚sse12960 0.0 103219
04:00−33˚se12960 0.0 103119
07:00−33˚ese22965 0.0 103019
10:00−31˚e229596 0.0 102867
13:00−27˚ene249598 0.0 1024208
16:00−26˚ene2495100 0.0 1022226
19:00−26˚ene3595100 0.0 1022218
22:00−25˚ene2498100 0.1 1021160